Voltar ao catálogo

CZ-6A DEB

AtivoSSO
NORAD 54637·DEBRIS·🇨🇳 China

Lançado Nov 11, 2022 de Taiyuan Satellite Launch Center

Loading…

Próximas Passagens (próximas 24 horas)

TLE

AtualizadoSource: Space-Track

Época: Sep 14, 2026, 00:00 UTC

1 54637U 22151PP  26257.00040787  .00002746  00000-0  12900-2 0  9997
2 54637  98.8408 262.8103 0062866  86.7592 274.0774 14.19830189196631

Acompanhe CZ-6A DEB em tempo real com AllMySat

Download on the App Store